Theta_e
295 287 284 286 289 288 288 286 284 287 291 292 290 291 296 298 295 296 297 300 304 309 317 316 319 322 324 326 326 328 329 330 331 330 329 328 328 330 330 331 331 330 330 329
290 284 287 290 293 291 288 286 285 287 291 290 286 286 290 292 296 297 296 296 298 299 301 303 305 306 315 322 324 326 327 329 330 331 331 330 330 329 332 331 330 331 330 329
284 287 290 289 290 290 288 284 283 284 287 287 283 283 286 290 292 296 298 298 297 298 300 301 302 302 304 309 318 323 325 328 330 331 328 326 326 326 327 328 328 329 331 330
287 292 288 286 286 289 285 289 287 287 285 280 283 277 281 285 287 290 294 295 298 300 300 301 302 301 302 303 306 316 322 325 328 330 328 327 327 326 327 327 330 329 329 329
285 288 288 286 285 288 285 291 290 289 285 284 280 278 280 282 283 285 288 292 295 298 300 301 301 302 301 301 302 305 313 321 326 328 329 327 328 328 325 325 326 326 326 328
287 292 291 291 290 290 290 288 287 286 284 277 279 279 278 282 284 286 288 289 291 294 295 296 297 297 299 299 300 303 306 313 322 326 327 327 326 325 323 322 323 323 324 325
287 287 289 290 286 289 286 283 277 275 273 272 277 278 282 283 286 287 289 289 290 290 289 290 290 291 294 297 300 302 304 305 310 319 324 325 325 323 322 322 321 318 318 316
279 279 287 289 287 284 284 282 276 271 271 273 279 276 280 286 288 289 289 290 291 291 290 290 291 292 293 297 302 303 303 303 305 306 307 308 310 311 311 312 313 315 314 312
279 280 287 288 289 289 284 281 284 278 275 273 276 279 283 285 287 288 288 289 290 291 291 290 291 295 296 299 301 301 301 301 302 301 300 301 302 303 304 304 307 307 305 304
282 277 284 287 289 289 287 288 280 280 267 269 274 276 277 282 284 285 286 287 288 290 292 292 295 296 296 297 297 298 298 297 297 297 297 297 297 298 299 299 299 299 299 300
285 281 281 285 284 283 285 283 284 282 277 272 270 274 281 283 284 284 286 288 287 291 292 294 294 293 292 292 293 293 293 293 292 293 293 293 293 294 294 294 295 295 296 297
284 284 279 279 284 288 287 284 285 279 276 277 276 276 284 284 285 285 287 289 289 291 291 292 292 292 291 291 291 291 290 291 290 290 290 290 290 290 290 291 291 292 292 293
282 280 274 275 281 285 282 285 287 284 281 276 273 276 285 285 284 285 287 288 289 290 291 292 292 292 291 290 289 289 288 288 288 288 288 287 287 288 287 287 288 289 289 288
285 278 274 269 275 279 277 282 285 285 281 279 278 281 283 284 284 286 286 287 288 289 290 291 291 291 291 290 289 288 288 287 286 286 285 285 285 285 285 285 286 286 287 286
281 269 275 277 278 279 279 279 279 281 281 280 281 280 284 286 286 287 287 287 287 288 289 289 290 291 291 290 289 287 287 286 284 284 284 284 284 283 283 283 284 284 285 284
284 275 277 276 278 277 276 279 280 280 277 278 279 279 286 288 290 288 289 289 289 291 292 292 290 290 290 290 289 287 286 285 283 283 283 283 282 282 282 282 282 282 282 282
279 276 273 267 275 275 265 274 279 278 279 279 276 281 286 285 287 288 289 289 289 290 290 291 292 291 290 290 290 288 287 285 283 283 283 282 281 281 281 281 281 280 280 281
278 275 270 263 267 260 273 277 278 278 279 280 281 283 283 285 287 288 289 289 289 290 291 291 292 291 290 289 289 288 285 284 284 283 282 281 281 280 280 279 279 279 279 279
281 277 268 264 258 268 274 276 276 276 276 281 281 282 283 284 284 283 287 286 286 286 287 287 287 285 285 285 287 286 283 283 283 282 282 282 281 280 279 278 278 278 278 278
281 281 269 259 258 258 271 276 279 282 272 280 283 282 282 282 278 280 285 284 284 284 284 283 282 281 281 282 283 283 282 281 281 282 282 282 281 280 279 279 277 278 278 278
273 274 271 261 263 267 276 279 281 269 274 282 283 283 281 281 282 284 282 282 282 281 281 281 280 279 279 279 280 280 281 280 282 281 280 279 280 279 279 278 277 277 277 277
267 264 266 265 268 265 277 278 276 279 281 281 281 281 282 281 280 280 280 280 279 278 278 278 277 277 277 277 277 278 278 279 278 278 278 277 278 278 278 277 276 276 276 275
267 273 269 271 271 278 279 281 282 283 280 279 281 282 280 279 278 278 278 277 277 277 277 277 275 275 275 276 276 276 277 277 275 275 274 275 276 277 277 276 275 275 275 274
272 276 272 272 276 278 279 279 280 280 280 281 281 279 277 278 277 278 277 277 276 275 275 275 274 274 274 274 274 274 274 275 274 274 273 273 274 274 275 276 276 275 274 273
275 274 271 272 277 277 279 278 279 279 279 279 278 278 278 277 277 276 276 275 274 274 273 273 273 273 272 271 271 270 272 271 272 272 271 273 274 273 273 274 274 274 275 275
275 274 273 274 278 278 278 279 279 278 278 277 276 275 275 275 275 274 273 273 272 272 271 271 271 270 270 269 268 268 268 270 269 269 269 270 271 270 272 272 272 277 277 278
Wind_Speed
4 4 10 7 5 4 6 5 5 3 1 4 5 5 14 3 3 7 7 7 10 12 8 6 7 9 9 8 10 12 12 12 9 6 7 6 8 9 7 8 10 10 9 10
4 10 6 8 4 3 4 4 3 1 1 3 1 8 12 5 7 8 10 9 10 6 6 8 9 8 10 11 13 11 12 12 12 9 6 4 5 4 6 7 8 10 10 10
6 1 10 7 7 7 4 6 4 3 1 3 3 7 8 7 5 6 8 8 6 12 14 10 9 11 10 12 13 13 14 14 13 13 6 4 3 2 4 6 6 10 11 10
5 5 6 6 7 8 8 8 6 5 3 3 3 9 6 8 7 5 9 8 14 14 12 12 12 9 11 13 8 11 12 14 13 14 11 13 10 9 7 6 5 6 9 10
6 8 8 3 5 7 5 6 8 4 4 4 1 1 7 2 6 8 10 13 13 15 16 18 14 13 7 7 8 9 8 10 11 13 14 11 10 8 4 4 6 6 6 8
6 3 6 9 5 7 9 8 7 5 3 4 7 6 5 6 6 4 5 8 11 9 7 9 9 7 9 6 7 7 8 10 10 13 14 15 15 10 7 5 6 4 5 6
5 4 3 4 7 2 3 7 3 2 0 8 2 5 12 6 5 5 7 8 7 6 6 8 8 7 9 8 7 6 8 8 8 10 12 13 13 10 11 8 6 6 4 4
5 6 8 5 5 8 8 8 7 8 7 4 1 9 7 5 7 8 8 8 7 6 7 9 9 7 7 7 7 7 7 6 7 7 6 4 5 3 3 4 4 4 5 5
5 2 3 4 5 9 6 7 6 6 3 3 5 7 8 4 8 10 7 3 7 7 8 8 8 5 5 5 5 6 5 4 4 5 5 4 4 4 4 4 3 3 4 5
1 3 2 4 3 2 8 7 3 2 5 4 5 4 5 4 7 7 9 9 8 7 7 7 5 5 4 3 4 5 5 4 3 4 4 3 4 4 4 4 5 5 5 6
1 2 1 6 6 9 4 5 2 5 5 6 2 6 7 4 3 4 5 5 6 6 5 5 4 4 5 4 5 4 4 4 3 3 3 4 4 4 4 4 5 5 5 6
2 1 3 3 1 1 1 5 5 6 5 2 2 6 4 4 5 1 3 5 5 4 5 4 4 4 4 3 4 3 2 4 3 3 4 5 4 4 4 4 4 4 6 5
4 2 3 4 5 5 1 3 3 3 3 7 6 7 1 3 2 1 5 4 4 4 5 3 1 1 2 2 2 3 3 3 4 4 4 4 4 4 4 4 4 5 6 6
3 3 2 5 3 0 3 4 2 9 4 7 8 11 5 8 8 9 5 5 4 4 3 1 3 4 5 5 5 5 5 4 4 4 4 5 5 5 4 4 4 5 5 6
3 4 2 0 1 3 1 2 3 3 3 6 4 6 1 7 8 8 7 6 5 6 6 5 4 6 6 7 7 6 5 5 4 4 4 5 5 5 5 6 5 5 5 6
0 2 2 1 2 5 3 6 7 8 4 6 5 16 9 11 8 8 8 8 10 14 15 9 5 6 7 7 6 5 7 7 6 8 10 7 7 6 7 7 7 6 5 6
2 2 3 3 6 4 7 8 8 4 5 6 7 8 3 4 6 6 7 7 8 9 10 12 11 8 7 7 7 10 11 8 11 10 8 8 9 8 9 8 8 8 8 7
3 2 3 3 4 1 8 4 3 6 7 6 8 8 4 4 5 7 6 4 6 8 9 11 10 9 7 6 6 7 6 10 11 12 11 11 12 11 9 9 8 8 7 8
5 2 3 4 3 6 9 5 6 7 8 6 7 4 3 3 3 5 2 2 4 6 7 7 8 9 9 7 7 7 6 7 9 11 12 12 11 11 11 12 11 9 8 7
5 5 4 3 5 7 9 4 2 4 6 2 4 2 4 2 2 5 1 4 8 7 5 8 10 8 7 8 9 7 8 8 10 12 12 10 12 13 13 12 12 9 9 9
3 2 10 4 3 9 12 3 1 6 7 4 3 4 3 4 5 3 8 7 5 6 9 9 8 8 7 8 9 9 7 9 8 6 7 8 11 12 12 11 9 11 10 10
7 6 5 3 5 9 2 5 7 6 3 3 3 3 6 6 5 6 6 8 8 9 9 7 10 10 6 6 6 8 9 6 5 5 7 9 9 8 9 12 10 10 10 10
3 7 6 9 9 6 7 7 7 4 4 2 3 6 5 7 5 5 6 6 6 9 9 6 6 12 7 5 5 9 6 5 4 4 5 6 7 9 10 11 11 10 10 9
5 5 4 3 7 13 8 5 6 6 7 5 5 4 3 9 7 11 6 5 5 6 9 7 8 10 11 5 6 6 7 4 3 4 4 4 7 7 8 8 10 10 10 10
6 5 6 8 9 7 10 7 8 7 4 3 3 3 5 5 8 7 9 6 5 5 5 5 8 10 11 7 7 5 5 2 3 2 2 4 4 7 8 8 9 9 10 13
8 8 6 8 8 5 5 3 1 3 4 2 3 6 4 3 8 7 10 6 6 8 5 7 7 8 10 7 6 6 4 3 3 2 2 2 4 3 4 6 4 11 11 18
Wind_Direction
197 146 206 190 186 131 139 141 164 228 122 151 219 258 259 222 234 243 231 230 228 222 246 206 211 207 207 204 200 202 193 196 179 179 195 211 217 217 214 216 209 204 207 203
117 225 182 164 182 129 130 139 174 179 78 143 87 261 262 226 234 214 225 218 238 251 252 238 230 211 211 214 212 204 203 192 194 193 192 189 184 208 216 203 206 209 206 203
170 225 171 159 163 174 156 150 155 140 102 67 345 277 256 256 214 239 229 236 219 225 238 243 234 221 214 216 211 205 205 202 196 194 157 126 117 134 180 212 213 213 208 204
207 188 157 161 180 153 207 158 142 128 103 217 37 279 278 261 255 234 246 224 232 236 244 245 240 232 216 225 208 207 207 205 201 186 187 190 199 199 204 196 202 199 196 202
198 155 152 169 187 145 200 165 154 120 99 58 228 295 269 318 277 264 237 241 238 232 233 243 241 242 234 219 209 213 211 205 199 191 196 197 206 213 189 184 186 195 198 208
166 163 168 182 167 154 144 99 63 66 124 246 179 171 210 197 211 256 238 238 247 256 249 255 257 265 255 240 221 204 199 211 196 192 195 197 203 197 193 186 202 195 201 218
181 171 158 131 97 87 147 140 97 87 139 230 324 197 255 256 255 234 267 278 282 290 267 262 263 260 256 243 230 215 193 200 188 193 196 200 203 191 200 198 197 179 195 207
154 165 176 182 168 175 181 164 158 182 192 204 47 231 242 245 287 265 238 251 299 296 260 259 257 255 254 235 210 205 192 180 172 168 168 160 161 172 188 195 198 205 193 182
130 235 134 175 151 143 203 201 146 101 50 69 217 291 291 268 277 302 312 291 276 292 300 278 299 289 269 240 204 185 176 149 151 139 134 138 140 154 170 173 173 171 155 149
78 142 207 181 106 34 178 151 106 42 134 226 257 275 230 279 294 335 336 340 332 343 343 346 352 358 1 32 51 63 85 104 102 105 106 118 126 132 143 148 150 143 135 131
226 127 351 122 208 168 146 174 144 121 153 170 206 260 215 204 10 16 331 334 345 350 360 13 23 45 51 33 57 70 87 100 102 107 109 111 108 107 107 112 122 123 120 130
4 308 136 168 99 80 248 162 179 191 197 213 126 264 204 195 96 99 17 10 23 11 14 26 46 42 54 64 46 72 87 118 125 120 114 117 121 120 118 122 121 121 119 105
307 59 92 20 6 13 100 180 218 122 92 205 161 243 27 178 240 169 80 38 24 17 29 23 43 99 180 187 199 194 182 167 157 146 138 134 147 144 141 139 138 130 130 125
64 65 85 162 124 172 334 1 352 212 196 231 225 251 298 317 317 301 319 297 317 332 322 343 301 257 237 227 221 213 212 201 178 164 167 169 178 172 163 154 151 143 142 138
66 105 90 250 197 113 97 336 350 246 260 218 268 281 291 297 296 305 302 285 280 284 294 250 235 248 247 247 234 220 228 195 179 179 195 204 186 175 164 160 161 157 157 150
97 146 69 224 282 208 230 226 240 253 226 257 258 278 226 248 276 279 281 302 307 314 315 305 254 255 246 249 256 247 229 214 181 195 200 191 187 181 184 173 165 158 149 151
81 121 95 266 332 103 335 230 203 209 203 189 212 248 32 29 318 302 297 290 286 292 296 301 303 295 264 240 224 216 217 180 200 206 202 193 184 193 189 175 164 160 161 160
122 107 81 206 27 41 240 289 227 221 250 228 273 273 297 284 281 280 275 299 327 321 317 317 321 329 334 315 279 254 202 202 207 207 198 193 190 191 178 171 173 160 156 168
207 132 101 131 192 299 305 289 147 170 273 202 222 270 254 260 286 288 121 57 308 295 294 300 313 313 314 304 290 269 229 212 212 215 211 203 192 181 177 184 173 163 162 164
173 216 121 75 141 207 236 229 245 135 287 195 142 255 259 315 344 261 131 327 307 310 305 311 317 315 313 320 313 259 240 220 223 222 220 200 192 189 188 181 173 173 171 164
134 190 215 192 211 279 256 200 20 106 235 167 208 255 230 211 214 263 329 314 289 292 310 318 316 306 300 317 317 289 266 242 248 220 195 192 195 194 185 171 171 165 166 158
166 151 205 141 209 268 170 66 174 215 174 209 265 255 275 255 253 257 275 291 311 310 320 327 315 306 307 306 309 295 289 283 245 206 193 185 184 185 175 168 162 167 163 161
261 194 186 183 210 227 202 202 223 211 284 298 264 280 280 285 257 270 260 256 285 303 307 310 296 307 306 300 304 296 289 287 258 203 196 185 178 176 171 170 167 165 167 168
260 191 217 63 241 244 258 252 237 232 224 221 224 236 242 273 306 297 282 279 289 300 309 316 312 302 303 303 305 289 301 275 216 222 209 183 187 177 175 179 174 173 176 173
200 147 203 255 275 275 263 243 264 280 214 228 255 229 249 280 290 275 301 304 285 278 278 285 299 298 296 302 298 303 309 296 249 242 187 204 202 189 185 189 185 186 187 183
180 208 191 230 221 213 245 253 140 250 294 309 305 315 305 291 296 310 300 298 291 294 288 292 280 285 292 297 298 300 297 265 197 202 218 210 177 197 192 173 164 199 192 190